STARLINK-32376, 61707

Orbit data source: Space-Track

STARLINK-32376, 61707 is a payload satellite owned by SpaceX/Seattle (US) in LEO that was launched on Wed, 30 Oct 2024 UTC via an FALCON 9 launch vehicle from the Air Force Eastern Test Range (AFETR). Payloads include a variety of satellites, spacecraft, and rockets equipped with specific instruments for various scientific and technological missions. These include communications satellites like Starlink; space stations such as the ISS; scientific satellites like the Hubble; Earth observation satellites from companies like Planet Labs, Umbra, and HawkEye 360; GPS; miniature CubeSats for education and research; and military/defense satellites.

Loading next visibility...
STARLINK-32376 details
Identifier
61707, 2024-196A
Orbit
LEO
Last TLE update18 hours ago
Origin
Flag of USSpaceX/Seattle (US)
ManufacturerSpaceX/Seattle
MissionOperational spacecraft
Bus & MotorSTARLINK V2M, Unknown motor
Mass730 kg wet, ~700 kg dry
Launch date (UTC)
2024-10-30 (3 months ago)
Launch vehicle
FALCON 9
Launch site
Air Force Eastern Test Range (AFETR)
Object type
Payload
Rocket body
Debris
Shape & HBRUnknown
Radar Cross SectionLarge (>1 m²)

Expand to show TLE details & history

TLE from 18 hours ago
0 STARLINK-32376
1 61707U 24196A   25023.80021456  .00000645  00000-0  26118-4 0  9998
2 61707  53.1591 205.7398 0001080  97.1906 262.9222 15.39609398 14409
Epoch: 2025-01-23T19:12Z
Definitive object data (Epoch: 2025-01-23T19:12:18.537Z)
Latitude-0.00002°
Longitude154.29001°
Altitude448.258 km
Speed7.644 km/s
True Right ascension13h 42m 57s
True Declination0° 00' 00"
Sunlit
Object was in daylight at TLE epoch
Visualization TLE readout
Latitude-14.80136°
Longitude-17.8901°
Altitude451.353 km
Speed7.642 km/s
Apparent Right ascension02h 20m 06s
Apparent Declination-26° 47' 18"
Sunlit
Object is in daylight
Visualization observer readout
Local Sidereal Time14:28:01
Azimuth7.738° NNE
Elevation-76.77°
Doppler factor1
Orbital elements
Apogee altitude448.258 km
Perigee altitude446.784 km
Semi-major axis6,825.658 km
Eccentricity0.000108
Inclination53.1591°
RAAN205.7398°
Arg. of periapsis97.1906°
True anomaly262.90992°
Mean anomaly262.9222°
Eccentric anomaly262.91606°
Mean motion3.84881 °/min
BSTAR0.000026118
Orbital period93.54 mins
Loading maneuver chart data...
Loading historical data...
Loading historical data...
Loading historical data...
Loading historical data...
Loading historical data...
Loading historical data...
Loading historical data...

STARLINK-32376 Visibility forecast

Observer location: undefined°, undefined

Span
Click to sort rows by Start time (UTC) header in descending order
Start Az.
Max El. time (UTC)
Max El. Az.
Max El.
End time (UTC)
End Az.
5 mins2025-01-24 14:04:02.835Z192.135° SSW2025-01-24 14:06:02.835Z146.536° SSE28.815°2025-01-24 14:09:02.835Z70.714° E
4 mins2025-01-24 15:42:02.835Z285.159° WNW2025-01-24 15:44:02.835Z341.825° N25.222°2025-01-24 15:46:02.835Z24.848° NE
4 mins2025-01-24 20:37:02.835Z343.344° N2025-01-24 20:39:02.835Z43.42° NE27.203°2025-01-24 20:41:02.835Z88.627° E
4 mins2025-01-24 22:14:02.835Z277.792° WNW2025-01-24 22:16:02.835Z225.126° WSW26.378°2025-01-24 22:18:02.835Z175.826° S
|